星链-2636 (STARLINK-2636 )

导读

STARLINK-2636是美国SpaceX星链星座的卫星,于2021年5月4日发射升空,属于星链第二代组网卫星,主要为全球提供低延迟、高速率的宽带互联网服务。该卫星运行在近地轨道,依托星链大规模星座部署,支持民用通信、偏远地区网络覆盖以及部分特殊场景的通信保障,是星链全球互联网布局的组成单元。

Basic Information
目录编号:
48357
目录名称:
STARLINK-2636
国际标识:
2021-038E
轨道中心:
EARTH
卫星名称:
星链-2636
卫星全名:
星链-2636 (STARLINK-2636 )
卫星状态:
在轨 (已飞行1949 天)
发射日期:
2021-05-04 UTC
国别 :
美国 (US)
星等 :
--
Orbit Information
数据来源 国际轨道数据 AOE轨道数据
星历时间 2026-09-04T07:52:05+0800
10小时前
查看轨道信息
2026-09-01T01:00:00+0800
3天前
查看轨道信息
半长轴 6848.898km 6848.856km
偏心率 0.0001237 0.0002056
轨道倾角 53.159° 53.163°
近地点辐角 67.008° 59.620°
升交点赤经 248.398° 263.706°
平近点角 293.106° 170.165°
近地点 469.913km 469.31km
远地点 471.609km 472.128km
周期 94.014分钟 94.013分钟
每日圈数 15.31693 15.317073
Detailed Information
固有亮度:
5
最大亮度:
2.5
卫星平台:
Starlink V1.0
覆盖范围:
全球
运营商:
太空探索技术公司
运营商所在国:
美国
制造商(研发单位):
太空探索技术公司
制造商所在国:
美国
使用方式:
暂无
Satellite Introduction
星链(Starlink)计划是由太空探索技术公司(SpaceX)提出的一个巨型低轨卫星互联网星座项目,计划在2019年至2024年间在太空搭建由约1.2万颗卫星组成的“星链”网络,其中1584颗将部署在地球上空550千米处的近地轨道,并从2020年开始工作。该卫星仍在工作。
2D Orbit Map
3D Orbit Map
Orbit Altitude Analysis Chart
Orbit Inclination Analysis Chart
Orbit Comprehensive Analysis Chart
View Comprehensive Chart
Conjunction Data List
Event ID Objects TCA Miss Dist (km) Collision Risk Probability Collision Risk Index (CRI) Action
CDM_260905-222304-835705-717621
OBJECT L (57176)
2026-09-05T
22:23:21+0000
1.656 km
极远距离
3.775212E-6 低风险 0.47
CDM_260905-125004-835706-913521
2026-09-05T
12:50:40+0000
2.872 km
极远距离
1.398648E-6 低风险 0.38
CDM_260904-180204-835706-956321
2026-09-04T
18:02:57+0000
2.558 km
极远距离
1.069539E-6 低风险 0.36